Find Starlink 34284

NORAD ID: 64212 Int'l Des: 2025-117 Owner: SPXS Country: US Constellation: starlink operational
LEOCIRCULAR

現在のビュー

3D地球を読み込み中...

About Starlink 34284

Starlink 34284 (NORAD 64212) is a starlink constellation satellite (v2 mini) launched May 31, 2025 by SPXS of US. It operates in LEO, CIRCULAR orbit with a mass of 575.00 kg.

次回通過

Passes for default location (London). Set your location on the main map for personalized predictions.

高度履歴

Loading altitude history...

軌道要素

1 64212U 25117K 26262.60417750 .00022569 00000-0 67711-3 0 9998
2 64212 53.1596 217.5581 0000360 127.4626 232.6409 15.34399232 74235
Epoch: Sep 19, 2026 • Age: 23 hours

現在のステータス

高度 474.3 km
遠地点 / 近地点 N/A
速度 7.63 km/s
衛星直下点 -35.89°S, 25.24°W
打ち上げ日 May 31, 2025
運用期間 1.3 years
タイプ internet

技術仕様

分類 Payload
質量 575.00 kg
乾燥質量 530.00 kg
長さ 0.30 m
スパン 29.00 m
形状 ? Box + pan
製造者 SPXS
バスタイプ Starlink V2MO
フェーズステータス In Orbit
所有者/国 SPXS/US

Most Searched